Regional Weather Roundup
Issued by NWS

Home | Current Version | Previous Version | Graphics & Text | Print | Product List | Glossary On
Versions: 1 2 3 4 5 6 7 8 9 10 11 12 13 14 15 16 17 18 19 20 21 22 23 24 25 26 27 28 29 30 31 32 33 34 35 36 37 38 39 40 41 42 43 44 45 46 47 48 49 50
000
ASUS45 KTFX 031404
RWRMT
MONTANA REGIONAL WEATHER ROUNDUP
NATIONAL WEATHER SERVICE GREAT FALLS MT
800 AM MDT THU SEP 03 2015

NOTE: "FAIR" INDICATES FEW OR NO CLOUDS BELOW 12000 FEET WITH NO
SIGNIFICANT WEATHER AND/OR OBSTRUCTIONS TO VISIBILITY.

MTZ001>007-043-031500-
WEST OF THE DIVIDE

CITY           SKY/WX    TMP DP  RH WIND       PRES   REMARKS
KALISPELL      CLOUDY    54  45  71 S12       29.92R
MISSOULA       CLOUDY    50  49  96 NW6       29.96R
BUTTE          CLOUDY    49  38  65 VRB6      29.97R
MULLAN PASS    CLOUDY    40  36  86 VRB5      29.97R
DEER LODGE       N/A     48  41  76 CALM      29.97F
EUREKA           N/A     43  39  87 CALM      29.95R
HAMILTON         N/A     52  46  82 NW3       29.93S
LIBBY            N/A     43  37  81 CALM      29.93R
$$

MTZ008-052>055-031500-
SOUTHWEST MONTANA

CITY           SKY/WX    TMP DP  RH WIND       PRES   REMARKS
BOZEMAN        PTSUNNY   53  43  68 N3        29.89R
DILLON           N/A    N/A N/A N/A MISG      29.90R
W YELLOWSTONE  PTSUNNY   45  36  70 CALM      29.99S
$$

MTZ009-010-012-014-046-048-049-054-031500-
EAST SLOPES AND CENTRAL MONTANA

CITY           SKY/WX    TMP DP  RH WIND       PRES   REMARKS
CUT BANK       CLOUDY    48  46  93 S9        29.95R
GREAT FALLS    CLOUDY    54  37  52 NE12      29.93F
HELENA         CLOUDY    59  38  45 W12       29.90F
$$

MTZ011-013-016-021-045-047-050-051-031500-
NORTH CENTRAL MONTANA

CITY           SKY/WX    TMP DP  RH WIND       PRES   REMARKS
HAVRE          MOSUNNY   54  38  54 SW6       29.93R
LEWISTOWN      CLOUDY    51  42  71 CALM      29.95R
N BAR RANCH    PTSUNNY   54  43  66 NW7       29.95F
CHINOOK          N/A     52  37  58 W3        29.92R
FORT BENTON      N/A     52  39  62 CALM      29.95R
$$

MTZ017>020-022>027-061-062-031500-
NORTHEAST MONTANA

CITY           SKY/WX    TMP DP  RH WIND       PRES   REMARKS
GLASGOW        SUNNY     60  41  49 W15       29.82R
JORDAN           N/A     63  39  41 W13       29.85R
SIDNEY         SUNNY     70  45  40 N14         N/A
WOLF POINT     MOSUNNY   70  43  37 SW5       29.74R
PLENTYWOOD       N/A     70  39  32 N16G24    29.71F
POPLAR           N/A     70  39  32 NE6       29.73R
$$

MTZ028>42-056>058-031500-
SOUTHCENTRAL AND SOUTHEAST MONTANA

CITY           SKY/WX    TMP DP  RH WIND       PRES   REMARKS
BAKER          MOSUNNY   66  45  46 W7        29.74R
BILLINGS       CLOUDY    62  37  39 N18       29.87F
LIVINGSTON     MOSUNNY   56  43  61 SE7       29.88R
MILES CITY     MOSUNNY   67  41  38 W10       29.77R
FORSYTH          N/A     63  39  42 W14G20    29.84R
$$

REGIONAL REPORTS...DAKOTAS

CITY           SKY/WX    TMP DP  RH WIND       PRES   REMARKS
WILLISTON      SUNNY     68  50  52 N15       29.69S
MINOT          CLOUDY    70  68  93 E6        29.68S FOG
DICKINSON      SUNNY     73  53  49 W6        29.68R
BISMARCK       SUNNY     71  68  90 E7        29.69S
GRAND FORKS    CLOUDY    72  69  90 SE17      29.78S
FARGO          CLOUDY    74  69  85 SE17G23   29.79S
BUFFALO SD       N/A     72  46  39 CALM      29.69R
RAPID CITY     MOSUNNY   69  55  60 CALM      29.80R
$$

REGIONAL REPORTS...WYOMING/IDAHO/WASHINGTON

CITY           SKY/WX    TMP DP  RH WIND       PRES   REMARKS
GILLETTE       MOSUNNY   71  40  32 W9        29.87R
SHERIDAN       CLOUDY    64  36  35 W20       29.89R
BUFFALO WY     PTSUNNY   69  37  30 N5        29.92S
CODY           PTSUNNY   59  37  44 NE8       29.93R
YELLOWSTONE LA   N/A     49  47  93 CALM      30.10R
IDAHO FALLS    PTSUNNY   59  40  49 SW17      29.91R
SALMON         CLOUDY    55  43  62 N9        29.85S
BOISE          MOCLDY    55  44  66 W10       29.91R
SPOKANE        PTCLDY    46  35  65 S6        29.93R
$$

REGIONAL REPORTS...ALBERTA

CITY           SKY/WX    TMP DP  RH WIND       PRES   REMARKS
$$

REGIONAL REPORTS...SASKATCHEWAN

CITY           SKY/WX    TMP DP  RH WIND       PRES   REMARKS
$$


USA.gov is the U.S. government's official web portal to all federal, state and local government web resources and services.